Flag for Germany Weather past 2 weeks in Rüsselsheim, Hesse, Germany

52 °F

Drizzle. Overcast.

Feels Like: 46 °F
Forecast: 43 / 51 °F
Wind: 17 mph from West

Location: Wiesbaden Airport

Current Time: Dec 1, 2015 at 4:06:27 AM

Latest Report: Dec 1, 2015 at 3:03 AM

Visibility: N/A

Pressure: 30.07 "Hg

Humidity: 82%

Dew point: 46 °F

Location of RüsselsheimLocation

Historic Weather in Rüsselsheim — Graph


Rüsselsheim temperature yesterday

Maximum temperature yesterday: 52 °F (at 12:58 AM)
Minimum temperature yesterday: 46 °F (at 5:58 AM)
Average temperature yesterday: 50 °F

Past Weeks' High & Low Weather Summary

High60 °F (Nov 18, 2:58 AM)100% (Nov 17, 5:49 AM)30.32 "Hg (Nov 17, 5:49 AM)
Low27 °F (Nov 24, 4:58 AM)62% (Nov 18, 12:58 PM)29.40 "Hg (Nov 21, 1:01 PM)
Average43 °F89%29.94 "Hg
* Reported Nov 16 3:58 AM — Dec 1 3:03 AM, Rüsselsheim, Weather by CustomWeather, © 2015

Note: Actual official high and low records may vary slightly from our data, if they occured in-between our weather recording intervals... More about our weather records


Rüsselsheim weather history for previous 24 hours

Time TempWeatherWind HumidityBarometerVisibility
3:03 AM
Tue, Dec 1
52 °FDrizzle. Overcast.17 mph82%30.07 "HgN/A
1:58 AM52 °FLight rain. Overcast.23 mph82%30.06 "HgN/A
12:58 AM51 °FOvercast.23 mph86%30.05 "HgN/A
11:58 PM
Mon, Nov 30
51 °FLight rain. Overcast.21 mph88%30.03 "HgN/A
10:58 PM51 °FLight rain. Overcast.22 mph88%30.03 "HgN/A
9:58 PM50 °FLight rain. Overcast.23 mph91%30.02 "HgN/A
8:58 PM51 °FLight rain. Overcast.23 mph81%30.01 "HgN/A
7:58 PM51 °FLight rain. Overcast.20 mph80%30.00 "HgN/A
6:59 PM52 °FMostly cloudy.20 mph77%30.01 "HgN/A
5:58 PM52 °FDrizzle. Mostly cloudy.18 mph77%30.03 "HgN/A
4:58 PM51 °FOvercast.16 mph83%30.05 "HgN/A
4:00 PM50 °FMostly cloudy.16 mph88%30.05 "HgN/A
3:58 PM50 °FDrizzle. Mostly cloudy.17 mph88%30.06 "HgN/A
3:03 PM50 °FMore clouds than sun.18 mph94%30.07 "HgN/A
2:58 PM50 °FDrizzle. Overcast.15 mph96%30.08 "HgN/A
2:02 PM50 °FMore clouds than sun.18 mph100%30.09 "HgN/A
1:04 PM50 °FLight rain. Mostly cloudy.12 mph100%30.10 "HgN/A
12:04 PM48 °FLight rain. Fog.7 mph100%30.13 "Hg6 mi
11:58 AM48 °FLight rain. Mostly cloudy.6 mph100%30.15 "HgN/A
10:59 AM48 °FLight rain. Cloudy.6 mph100%30.15 "HgN/A
9:58 AM48 °FLight rain. Broken clouds.6 mph95%30.17 "HgN/A
8:58 AM47 °FOvercast.10 mph95%30.16 "HgN/A
7:58 AM46 °FLight rain. Overcast.9 mph93%30.13 "HgN/A
6:58 AM46 °FLight rain. Overcast.8 mph92%30.11 "HgN/A
5:58 AM46 °FLight rain. Overcast.10 mph87%30.08 "HgN/A
4:58 AM50 °FLight rain. Overcast.12 mph88%30.05 "HgN/A
Weather by CustomWeather, © 2015

See weather overviewHow to use our weather pages